Barcelona, Spain

4:18 AM CET on December 13, 2017 (GMT +0100)
El Prat

Weather History for LEBL - December, 2012

Change the Weather History Date:

Tuesday, December 25, 2012

  Actual Average Record
Temperature  
Mean Temperature 52 °F -  
Max Temperature 57 °F 54 °F 68 °F (2002)
Min Temperature 48 °F 40 °F 24 °F (2001)
Degree Days  
Heating Degree Days 12    
Growing Degree Days 2 (Base 50)    
Moisture  
Dew Point 50 °F    
Average Humidity 87    
Maximum Humidity 94    
Minimum Humidity 76    
Precipitation  
Precipitation 0.00 in 0.06 in - ()
Sea Level Pressure  
Sea Level Pressure 29.93 in    
Wind  
Wind Speed 6 mph ()    
Max Wind Speed 13 mph    
Max Gust Speed 20 mph    
Visibility 4.3 miles    
Events      
Averages and records for this station are not official NWS values.
T = Trace of Precipitation, MM = Missing Value Source: Averaged Metar Reports

Daily Weather History Graph

Daily Weather History Graph

Search for Another Location

Airport or City:

Trip Planner

Search our weather history database for the weather conditions in past years. The results will help you decide how hot, cold, wet, or windy it might be!

Date:

Astronomy

Dec. 25, 2012 Rise Set
Actual Time 8:15 AM CET 5:28 PM CET
Civil Twilight 7:44 AM CET 5:59 PM CET
Nautical Twilight 7:09 AM CET 6:34 PM CET
Astronomical Twilight 6:36 AM CET 7:07 PM CET
Moon 3:25 PM CET (12/25) 5:34 AM CET (12/25)
Length of Visible Light 10h 14m
Length of Day
9h 12m
Waxing Gibbous, 92% of the Moon is Illuminated
Dec 25
Waxing Gibbous
Dec 28
Full
Jan 5
Last Quarter
Jan 11
New
Jan 19
First Quarter

Hourly Weather History & Observations

Time (CET) Temp. Dew Point Humidity Pressure Visibility Wind Dir Wind Speed Gust Speed Precip Events Conditions
12:00 AM 53.6 °F 50.0 °F 88% 30.01 in 1.9 mi NNW 8.1 mph - N/A   Scattered Clouds
12:30 AM 51.8 °F 50.0 °F 94% 29.98 in 3.1 mi NNW 6.9 mph - N/A   Scattered Clouds
1:00 AM 51 °F 49 °F 92% 29.99 in 4 mi North 9.2 mph - -   Scattered Clouds
1:00 AM 51.8 °F 50.0 °F 94% 29.98 in 3.1 mi NNW 10.4 mph - N/A   Scattered Clouds
1:30 AM 51.8 °F 50.0 °F 94% 29.98 in 3.7 mi NNW 6.9 mph - N/A   Scattered Clouds
2:00 AM 51.8 °F 50.0 °F 94% 29.95 in 3.7 mi NW 8.1 mph - N/A   Mostly Cloudy
2:30 AM 51.8 °F 50.0 °F 94% 29.95 in 3.7 mi NW 8.1 mph - N/A   Mostly Cloudy
3:00 AM 51.8 °F 50.0 °F 94% 29.95 in 4.3 mi NNW 9.2 mph - N/A   Mostly Cloudy
3:30 AM 53.6 °F 50.0 °F 88% 29.95 in 4.3 mi NW 6.9 mph - N/A   Mostly Cloudy
4:00 AM 51.8 °F 50.0 °F 94% 29.95 in 3.7 mi NW 9.2 mph - N/A   Mostly Cloudy
4:30 AM 51.8 °F 50.0 °F 94% 29.95 in 3.7 mi NW 6.9 mph - N/A   Scattered Clouds
5:00 AM 51.8 °F 48.2 °F 88% 29.92 in 3.7 mi NW 6.9 mph - N/A   Scattered Clouds
5:30 AM 51.8 °F 48.2 °F 88% 29.92 in 3.7 mi NW 6.9 mph - N/A   Scattered Clouds
6:00 AM 50.0 °F 48.2 °F 94% 29.92 in 3.7 mi NW 8.1 mph - N/A   Scattered Clouds
6:30 AM 50.0 °F 48.2 °F 94% 29.92 in 3.7 mi NW 6.9 mph - N/A   Scattered Clouds
7:00 AM 49 °F 47 °F 90% 29.94 in 4 mi NNW 5.8 mph - -   Mostly Cloudy
7:00 AM 50.0 °F 48.2 °F 94% 29.92 in 3.7 mi NW 6.9 mph - N/A   Mostly Cloudy
7:30 AM 50.0 °F 48.2 °F 94% 29.92 in 3.1 mi NW 8.1 mph - N/A   Mostly Cloudy
8:00 AM 50.0 °F 48.2 °F 94% 29.92 in 3.1 mi NW 6.9 mph - N/A   Mostly Cloudy
8:30 AM 50.0 °F 46.4 °F 87% 29.92 in 3.1 mi NW 8.1 mph 19.6 mph N/A   Mostly Cloudy
9:00 AM 48.2 °F 46.4 °F 93% 29.92 in 3.1 mi NNW 6.9 mph - N/A   Mostly Cloudy
9:30 AM 50.0 °F 48.2 °F 94% 29.92 in 3.1 mi NW 6.9 mph - N/A   Mostly Cloudy
10:00 AM 50.0 °F 48.2 °F 94% 29.95 in 3.7 mi NNW 8.1 mph - N/A   Mostly Cloudy
10:30 AM 51.8 °F 48.2 °F 88% 29.95 in 3.7 mi NNW 5.8 mph - N/A   Mostly Cloudy
11:00 AM 51.8 °F 46.4 °F 82% 29.95 in 5.0 mi NNW 5.8 mph - N/A   Mostly Cloudy
11:30 AM 51.8 °F 46.4 °F 82% 29.95 in 5.0 mi NW 6.9 mph - N/A   Mostly Cloudy
12:00 PM 53.6 °F 48.2 °F 82% 29.95 in 4.3 mi NW 5.8 mph - N/A   Mostly Cloudy
12:30 PM 55.4 °F 48.2 °F 77% 29.92 in 5.0 mi Variable 2.3 mph - N/A   Mostly Cloudy
1:00 PM 55 °F 49 °F 76% 29.93 in 5 mi North 4.6 mph - -   Mist
1:00 PM 55.4 °F 50.0 °F 82% 29.92 in 5.0 mi Variable 2.3 mph - N/A   Mostly Cloudy
1:30 PM 55.4 °F 50.0 °F 82% 29.92 in 4.3 mi Variable 2.3 mph - N/A   Mostly Cloudy
2:00 PM 57.2 °F 51.8 °F 82% 29.89 in 4.3 mi NW 3.5 mph - N/A   Mostly Cloudy
2:30 PM 57.2 °F 50.0 °F 77% 29.89 in 4.3 mi Variable 2.3 mph - N/A   Mostly Cloudy
3:00 PM 57.2 °F 51.8 °F 82% 29.86 in 5.6 mi WSW 3.5 mph - N/A   Scattered Clouds
3:30 PM 57.2 °F 51.8 °F 82% 29.86 in 5.6 mi Variable 2.3 mph - N/A   Partly Cloudy
4:00 PM 57.2 °F 51.8 °F 82% 29.86 in 6.2 mi SSE 3.5 mph - N/A   Partly Cloudy
4:30 PM 57.2 °F 51.8 °F 82% 29.86 in 5.6 mi Calm Calm - N/A   Partly Cloudy
5:00 PM 55.4 °F 51.8 °F 88% 29.86 in 5.0 mi SSE 2.3 mph - N/A   Partly Cloudy
5:30 PM 55.4 °F 51.8 °F 88% 29.89 in 5.0 mi ESE 3.5 mph - N/A   Partly Cloudy
6:00 PM 55.4 °F 51.8 °F 88% 29.89 in 5.0 mi East 2.3 mph - N/A   Scattered Clouds
6:30 PM 55.4 °F 53.6 °F 94% 29.89 in 4.3 mi East 5.8 mph - N/A   Scattered Clouds
7:00 PM 55 °F 52 °F 85% 29.92 in 4 mi ENE 6.9 mph - -   Mist
7:00 PM 55.4 °F 53.6 °F 94% 29.92 in 4.3 mi ENE 5.8 mph - N/A   Mostly Cloudy
7:30 PM 57.2 °F 51.8 °F 82% 29.92 in 5.6 mi ENE 8.1 mph - N/A   Mostly Cloudy
8:00 PM 57.2 °F 51.8 °F 82% 29.92 in 5.6 mi ENE 6.9 mph - N/A   Mostly Cloudy
8:30 PM 57.2 °F 51.8 °F 82% 29.95 in 5.0 mi ENE 11.5 mph - N/A   Scattered Clouds
9:00 PM 55.4 °F 51.8 °F 88% 29.95 in 4.3 mi ENE 12.7 mph - N/A   Scattered Clouds
9:30 PM 55.4 °F 51.8 °F 88% 29.95 in 4.3 mi ENE 8.1 mph - N/A   Mostly Cloudy
10:00 PM 57.2 °F 50.0 °F 77% 29.95 in 5.6 mi East 10.4 mph - N/A   Mostly Cloudy
10:30 PM 57.2 °F 51.8 °F 82% 29.98 in 5.6 mi East 6.9 mph - N/A   Scattered Clouds
11:00 PM 57.2 °F 51.8 °F 82% 29.98 in 6.2 mi East 4.6 mph - N/A   Scattered Clouds
11:30 PM 55.4 °F 51.8 °F 88% 29.98 in 5.6 mi Variable 1.2 mph - N/A   Scattered Clouds